Hourly Data Report for April 14, 2003

TORONTO CITY
ONTARIO

43°40'00.000" N
79°24'00.000" W
112.50 m
6158355
71508
XTO

Download Data

Hourly Data (April 2003)
Hourly Data Report for April 14, 2003
TIME
LST
Temp Definition
°C
Dew Point Definition
°C
Rel Hum Definition
%
Precip. Amount Definition
mm

Wind Dir Definition
10's deg

Wind Spd Definition
km/h
Visibility Definition
km
Stn Press Definition
kPa
Hmdx Definition


Wind Chill Definition


Weather Definition


00:00 5.4 -4.4 49   LegendMM LegendMM LegendMM 101.24     LegendNANA
01:00 4.4 -2.2 62   LegendMM LegendMM LegendMM 101.20     LegendNANA
02:00 4.3 -1.2 67   LegendMM LegendMM LegendMM 101.12     LegendNANA
03:00 3.7 -0.8 72   LegendMM LegendMM LegendMM 101.14     LegendNANA
04:00 3.4 -1.0 73   LegendMM LegendMM LegendMM 101.11     LegendNANA
05:00 2.9 -4.0 60   LegendMM LegendMM LegendMM 101.08     LegendNANA
06:00 3.7 -5.3 52   LegendMM LegendMM LegendMM 101.15     LegendNANA
07:00 5.0 -3.3 55   LegendMM LegendMM LegendMM 101.16     LegendNANA
08:00 6.7 -3.3 49   LegendMM LegendMM LegendMM 101.13     LegendNANA
09:00 8.1 -3.5 44   LegendMM LegendMM LegendMM 101.07     LegendNANA
10:00 8.7 -3.5 42   LegendMM LegendMM LegendMM 101.02     LegendNANA
11:00 10.3 -3.8 37   LegendMM LegendMM LegendMM 100.95     LegendNANA
12:00 13.3 -2.5 33   LegendMM LegendMM LegendMM 100.82     LegendNANA
13:00 14.2 -5.0 26   LegendMM LegendMM LegendMM 100.69     LegendNANA
14:00 15.5 -2.9 28   LegendMM LegendMM LegendMM 100.59     LegendNANA
15:00 15.3 -1.2 32   LegendMM LegendMM LegendMM 100.46     LegendNANA
16:00 15.9 0.1 34   LegendMM LegendMM LegendMM 100.37     LegendNANA
17:00 15.8 -0.5 33   LegendMM LegendMM LegendMM 100.28     LegendNANA
18:00 16.9 -0.6 30   LegendMM LegendMM LegendMM 100.25     LegendNANA
19:00 15.8 0.2 35   LegendMM LegendMM LegendMM 100.21     LegendNANA
20:00 15.5 1.5 39   LegendMM LegendMM LegendMM 100.19     LegendNANA
21:00 15.3 2.3 41   LegendMM LegendMM LegendMM 100.18     LegendNANA
22:00 16.3 2.5 39   LegendMM LegendMM LegendMM 100.15     LegendNANA
23:00 14.8 2.7 44   LegendMM LegendMM LegendMM 100.10     LegendNANA

Notes on Data Quality.

Legend

  • E = Estimated
  • M = Missing
  • NA = Not Available*
  • [empty] = Indicates an unobserved value
Date modified: